Location: Unspecified
(22.6800°N, 112.2000°E)
Time: 10:05:56
(UTC+08:00)

S-56A Canister/Altair - Pass Details

Date: 01 August 2021
Orbit: 632 x 2500 km, 38.9° (Epoch: 27 September)

Event Time Altitude Azimuth Distance (km) Brightness Sun altitude
Rises 00:15:35 0° 288° (WNW) 5,547 12.1 -48.9°
Reaches altitude 10° 00:20:57 10° 274° (W) 4,191 11.3 -49.0°
Enters shadow 00:21:39 11° 271° (W) 4,028 11.2 -49.0°
Maximum altitude 00:27:42 19° 234° (SW) 3,022 - -49.2°
Drops below altitude 10° 00:33:04 10° 193° (SSW) 3,203 - -49.2°
Sets 00:36:29 0° 174° (S) 3,865 - -49.2°
